TimeAST,TemperatureF,Dew PointF,Humidity,Sea Level PressureIn,VisibilityMPH,Wind Direction,Wind SpeedMPH,Gust SpeedMPH,PrecipitationIn,Events,Conditions,WindDirDegrees,DateUTC
12:00 AM,17.6,10.4,73,30.29,15.0,West,15.0,23.0,N/A,,Mostly Cloudy,260,2013-01-19 04:00:00
1:00 AM,17.6,10.4,73,30.30,15.0,West,8.1,-,N/A,,Mostly Cloudy,260,2013-01-19 05:00:00
2:00 AM,18,13,70,30.32,15,West,11.5,,,,Mostly Cloudy,280,2013-01-19 06:00:00
2:00 AM,17.6,12.2,79,30.31,15.0,West,11.5,17.3,N/A,,Mostly Cloudy,280,2013-01-19 06:00:00
3:00 AM,17.6,10.4,73,30.32,15.0,WNW,11.5,19.6,N/A,,Scattered Clouds,290,2013-01-19 07:00:00
4:00 AM,15.8,10.4,79,30.32,15.0,West,8.1,-,N/A,,Partly Cloudy,280,2013-01-19 08:00:00
5:00 AM,17.6,10.4,73,30.32,15.0,SSE,3.5,-,N/A,,Overcast,160,2013-01-19 09:00:00
6:00 AM,14.0,8.6,79,30.31,15.0,SSE,5.8,-,N/A,,Overcast,150,2013-01-19 10:00:00
6:11 AM,-9999,-9999,N/A,-9999,15.0,ESE,5.8,-,N/A,,Unknown,120,2013-01-19 10:11:00
6:47 AM,-9999,-9999,N/A,-9999,15.0,Calm,Calm,-,N/A,,Overcast,0,2013-01-19 10:47:00
7:00 AM,12.2,6.8,79,30.28,15.0,ESE,5.8,-,N/A,,Overcast,120,2013-01-19 11:00:00
8:00 AM,13,6,61,30.28,7,SE,4.6,,,,Partly Cloudy,140,2013-01-19 12:00:00
8:00 AM,12.2,5.0,73,30.27,8.0,SE,46.0,-,N/A,,Overcast,140,2013-01-19 12:00:00
8:01 AM,-9999,-9999,N/A,-9999,3.0,SE,4.6,-,N/A,,Unknown,130,2013-01-19 12:01:00
8:08 AM,-9999,-9999,N/A,-9999,1.0,SE,3.5,-,N/A,,Unknown,130,2013-01-19 12:08:00
8:27 AM,-9999,-9999,N/A,-9999,0.6,East,2.3,-,N/A,,Unknown,100,2013-01-19 12:27:00
9:00 AM,14.0,10.4,86,30.24,0.6,SE,3.5,-,N/A,Snow,Light Snow,140,2013-01-19 13:00:00
9:31 AM,-9999,-9999,N/A,-9999,1.0,East,2.3,-,N/A,,Unknown,90,2013-01-19 13:31:00
9:47 AM,-9999,-9999,N/A,-9999,5.0,SE,3.5,-,N/A,,Unknown,140,2013-01-19 13:47:00
10:00 AM,17.6,12.2,79,30.24,3.0,SE,4.6,-,N/A,Snow,Light Snow,140,2013-01-19 14:00:00
10:20 AM,-9999,-9999,N/A,-9999,1.0,East,3.5,-,N/A,,Unknown,90,2013-01-19 14:20:00
11:00 AM,21.2,17.6,86,30.20,1.0,SSE,4.6,-,N/A,Snow,Light Snow,160,2013-01-19 15:00:00
11:34 AM,-9999,-9999,N/A,-9999,1.5,SSW,4.6,-,N/A,,Unknown,210,2013-01-19 15:34:00
12:00 PM,26.6,21.2,80,30.12,2.0,South,9.2,-,N/A,Snow,Light Snow,180,2013-01-19 16:00:00
12:27 PM,-9999,-9999,N/A,-9999,0.8,South,10.4,-,N/A,,Unknown,190,2013-01-19 16:27:00
1:00 PM,28.4,24.8,86,30.05,1.5,SW,8.1,-,N/A,Snow,Light Snow,220,2013-01-19 17:00:00
1:13 PM,-9999,-9999,N/A,-9999,0.4,SSW,8.1,-,N/A,,Unknown,200,2013-01-19 17:13:00
2:00 PM,31,28,81,30.01,0,SW,6.9,,,Snow,Snow,220,2013-01-19 18:00:00
2:00 PM,30.2,28.4,93,30.01,0.4,SW,5.8,-,N/A,Snow,Snow,220,2013-01-19 18:00:00
2:31 PM,-9999,-9999,N/A,-9999,0.2,West,5.8,-,N/A,,Unknown,260,2013-01-19 18:31:00
2:36 PM,-9999,-9999,N/A,-9999,0.5,WSW,6.9,-,N/A,,Unknown,250,2013-01-19 18:36:00
3:00 PM,32.0,28.4,87,30.01,0.4,WSW,8.1,-,N/A,Snow,Snow,240,2013-01-19 19:00:00
3:35 PM,-9999,-9999,N/A,-9999,0.6,SW,2.3,-,N/A,,Unknown,220,2013-01-19 19:35:00
4:00 PM,32.0,28.4,87,30.00,0.6,South,2.3,-,N/A,Snow,Light Snow,180,2013-01-19 20:00:00
5:00 PM,32.0,30.2,93,30.00,0.6,Calm,Calm,-,N/A,Snow,Light Snow,0,2013-01-19 21:00:00
6:00 PM,32.0,30.2,93,29.98,0.6,Calm,Calm,-,N/A,Snow,Light Snow,0,2013-01-19 22:00:00
6:34 PM,-9999,-9999,N/A,-9999,1.0,North,2.3,-,N/A,,Unknown,360,2013-01-19 22:34:00
7:00 PM,32.0,30.2,93,30.00,1.0,NNE,2.3,-,N/A,Snow,Light Snow,20,2013-01-19 23:00:00
7:20 PM,-9999,-9999,N/A,-9999,0.8,Calm,Calm,-,N/A,,Unknown,0,2013-01-19 23:20:00
8:00 PM,31,31,97,30.02,1,SE,2.3,,,Snow,Light Snow,130,2013-01-20 00:00:00
8:00 PM,32.0,30.2,93,30.01,0.8,SE,2.3,-,N/A,Snow,Light Snow,130,2013-01-20 00:00:00
8:50 PM,-9999,-9999,N/A,-9999,3.0,SSE,2.3,-,N/A,,Unknown,150,2013-01-20 00:50:00
9:00 PM,32.0,30.2,93,30.02,6.0,SSE,2.3,-,N/A,Snow,Light Snow,160,2013-01-20 01:00:00
10:00 PM,30.2,28.4,93,30.02,15.0,Calm,Calm,-,N/A,Snow,Light Snow,0,2013-01-20 02:00:00
10:16 PM,-9999,-9999,N/A,-9999,15.0,ESE,3.5,-,N/A,,Mostly Cloudy,110,2013-01-20 02:16:00
11:00 PM,28.4,26.6,93,30.02,15.0,Calm,Calm,-,N/A,,Mostly Cloudy,0,2013-01-20 03:00:00